Piloten Info

Wichtige Hinweise:

  • Tower Frequenz 122,330 kHz - keine Landung ohne Funkkontakt
  • PPR Betrieb
  • Temporäre Hindernisse (Baukräne) nahe dem Flugplatz durch Bauarbeiten entlang der Nürnberger Straße (Östliche Seite).
  • Starts auf RWY 09 sind nicht gestattet. Start generell auf RWY 27. Bei Planung Rückenwinde berücksichtigen!
  • Bei Anflügen auf RWY 27 sind Hindernisse vorhanden, aus diesem Grund die versetzte Schwelle27!
  • Der Flugverein Neumarkt führt seine Starts generell auf RWY 27 und Landungen auf RWY09 durch.
  • Es besteht keine Tankmöglichkeit.

Diese Hinweis sind als Ergänzung / Hilfe zur regulären Flugplanung gedacht.

Auszüge aus AIP VFR ohne Gewähr - es gelten die offiziellen Veröffentlichungen.




Wind Infos (info ohne Gewähr - nicht geeicht)

Wind Speed
Wind Direction


METAR Informationen der nächstgelegenen Flughäfen


EDDN / Flughafen Nürnberg „Albrecht Dürer“

EDDN 280550Z 12006KT 090V150 0200 R28/0800N FG VV/// 04/04 Q1023 NOSIG

ETIC / Fliegerhorst Grafenwöhr AAF

ETIC 280511Z AUTO 17003KT 0600 R32/0600V1000 FG VV001 01/00 A3020 RMK AO2 SLP244 $

ETIH / Fliegerhorst Hohenfels AAF

ETIH 280456Z AUTO 00000KT 0400 FG VV001 04/04 A3021 RMK AO2 SLP246 T00420036 RVRNO $